Location: Eferding
(48.3167°N, 14.0167°E)
Time: 02:24:03
(UTC+00:00)

IRS-1A Rocket - Pass Details

Date: 12 November 2019
Orbit: 852 x 931 km, 99.2° (Epoch: 08 December)

Event Time Altitude Azimuth Distance (km) Brightness Sun altitude
Exits shadow 17:54:54 51° 129° (SE) 1,097 4.4 -24.2°
Maximum altitude 17:56:13 68° 70° (ENE) 947 4.1 -24.4°
Drops below altitude 10° 18:01:53 10° 349° (N) 2,573 6.8 -25.4°
Sets 18:04:20 0° 347° (NNW) 3,530 7.6 -25.8°
